Location: Sabalos
(43.2860°N, 0.1414°E)
Time: 20:49:30
(UTC+00:00)

Meteor 2-1 Rocket - Pass Details

Date: 05 July 2020
Orbit: 831 x 905 km, 81.3° (Epoch: 14 August)

Event Time Altitude Azimuth Distance (km) Brightness Sun altitude
Rises 20:31:12 0° 349° (N) 3,487 8.3 -7.9°
Reaches altitude 10° 20:33:38 10° 349° (N) 2,555 7.6 -8.2°
Maximum altitude 20:39:28 87° 262° (W) 902 4.4 -9.0°
Drops below altitude 10° 20:45:22 10° 173° (S) 2,573 6.3 -9.8°
Enters shadow 20:46:40 - 173° (S) 3,069 6.6 -10.0°
